Погода в Шымкенте

Поиск расширенной информации на нашем сайте:

Полезная информация:

Новости сайта



02.01.2020
Опубликован Долгосрочный прогноз погоды по городам России и ближнего зарубежья на январь 2020 года.
Карты: Прогноз на январь и февраль 2020 года, Сравнение прогнозируемой аномалии приземной температуры воздуха на январь 2020 года по разным моделям.




Погода в Шымкенте - сегодня

Время (UTC), дата Ветер
(°,м/с) 
Видим.   Явления Облачность Т
(°С)
Тd
(°С)
f(%) Тe
(°С)
Pmin
(гПа)
dP
(гПа)
Po
(мм)
O2
(г/м3)
Тmin Tmax R s Состояние
почвы
15 02.07.20 270 (З) 3{15}  20000 м  пыльный позёмок  ясно 
+23.8 +2.3 24 +24  1011.7  708  262    +28.6       
18 02.07.20 320 (СЗ) н/о    ясно 
+17 +7.3 53 +18  1016.4  711  268    +28.6       
21 02.07.20 320 (СЗ) н/о    ясно 
+14 +6.1 59 +15  1017  -0.2  710  271           
00 03.07.20 170 (Ю) 20000 м    ясно 
+12.2 +5.6 64 +13  1017.1  -0.4  710  273           
03 03.07.20 140 (ЮВ) 20000 м    ясно 
+18.1 +7.7 51 +20  1015.8  0.3  710  267           
06 03.07.20 300 (СЗ) 20000 м    ясно 
+22.5 +9.5 44 +24  1014.6  -0.1  710  263  +10.3         
09 03.07.20 280 (З) 20000 м    ясно 
+25.8 +9.7 36 +28  1012.9  -0.7  710  260           
12 03.07.20 360 (С) 20000 м    ясно 
+27 +9.6 34 +29  1011.5  -1.1  709  258           
15 03.07.20 360 (С) 20000 м    ясно 
+24.1 +9.9 41 +26  1011.4  -0.7  708  260    +27.3       
18 03.07.20 360 (С) н/о    ясно 
+18.2 +10.4 60 +23  1012.6  -0.2  708  266    +27.3       
21 03.07.20 050 (СВ) н/о    ясно 
+16.1 +8.2 59 +17  1012.4  -0.7  708  268           
00 04.07.20 090 (В) 20000 м    ясно 
+15.2 +8 62 +16  1012  -0.6  707  268           
03 04.07.20 090 (В) 20000 м    6/0 верхняя 
[Ci ing]
+22.9 +5.7 33 +23  1010.5  0.3  707  262           
06 04.07.20 360 (С) 20000 м    3/0 верхняя 
[Ci fib]
+26.2 +4.9 25 +26  1010.3  0.5  708  259  +14.7         
09 04.07.20 360 (С) 20000 м    1/1 600 м 
[Cu med, cong]
+28.6 +6.2 24 +29  1009.1  -0.6  707  257           
12 04.07.20 360 (С) 20000 м    ясно 
+29.2 +6.1 23 +29  1007.2  -1.6  706  256           
15 04.07.20 360 (С) 20000 м    ясно 
+27 +9.1 32 +28  1006.5  -1  705  257    +29.6       
18 04.07.20 050 (СВ) н/о    ясно 
+20.5 +7.2 42 +21  1008.2  0.1  706  263    +29.6       
21 04.07.20 100 (В) н/о    ясно 
+18.8 +6 43 +20  1007.4  -1.2  705  265           
00 05.07.20 100 (В) 20000 м    ясно 
+14 +5.8 58 +15  1007.3  -1.2  704  269           
03 05.07.20 100 (В) 20000 м    ясно 
+22.7 +7.9 39 +23  1005.4  0.2  704  260           
06 05.07.20 300 (СЗ) 20000 м    3/1 600 м средняя 
[Cu med, cong|Ac trans]
+27.3 +5.8 25 +27  1004.6  0.2  704  257  +13         
09 05.07.20 260 (З) 20000 м    1/1 600 м 
[Cu med, cong]
+28.9 +3.8 20 +29  1002.8  -1.3  703  256           
12 05.07.20 250 (З) 20000 м    6/3 600 м верхняя 
[Cu med, cong|Ci fib]
+29.7 +4.7 20 +30  1002  -0.6  703  255           
15 05.07.20 050 (СВ) 20000 м    8/0 средняя, верхняя 
[Ac trans|Ci ing]
+24 +10.2 42 +27  1003.9  0.7  703  259    +30.3       
Время (UTC), дата Ветер
(°,м/с) 
Видим.   Явления Облачность Т
(°С)
Тd
(°С)
f(%) Тe
(°С)
Pmin
(гПа)
dP
(гПа)
Po
(мм)
O2
(г/м3)
Тmin Tmax R s Состояние
почвы

Для получения пояснительной информации подведите курсор к названию столбца.

ПОГОДА в Шымкенте - архив

Всё, что Вы хотите узнать о погоде в Шымкенте - удобно и подробно!

Выберите нужную дату (начиная с 1 января 2019* года) и нажмите кнопку "Найти".
Будут отображены архивные сводки погоды по пункту Шымкент, начиная с указанной даты.


Отображать данные в формате CSV (для использования в таблицах Excel)


Внимание! Наш архив погоды предназначен исключительно для личного некоммерческого использования в познавательных целях. Если Вам необходимы официальные справки о состоянии погоды (для производственных, юридических, коммерческих и т.п. целей), обращайтесь в органы Росгидромета.

*Примечание: данная дата относится к архиву по метеостанциям СССР (Россия, СНГ, Балтия).
Архив по метеостанциям Зарубежной Европы и Азии (кроме Китая) хранится 10 дней, по другим регионам земного шара (Китай, Африка, Америка, Австралия, Океания) - 1 день.

Шымкент - район местоположения метеостанции


Название, широта, долгота, высота метеостанции:
Шымкент (город) 42.3°ш. 69.7°д. 604 м над ур. моря [Казахстан]

Дополнительная информация

В oтличие oт бoльшинства пoгoдных сайтoв мы публикуем пoдрoбную метеoинфoрмацию в детальнoм прoфессиoнальнoм фoрмате.

Характеристики температуры и влажнoсти вoздуха измеряются на высoте 2 м в тени вдали oт зданий и деревьев.
Скoрoсть ветра измеряется на высoте 10 м (на урoвне рoста челoвека скoрoсть ветра ниже в 1.5-2 раза). Если метеoстанция нахoдится в гoрoде или в лесу, тo скoрoсть ветра занижена на 2-4 м/с пo сравнению с oткрытым местoм. Скoрoсть ветра над акватoриями крупных рек и oзёр, а также на вершинах хoлмoв на 2-5 м/с выше, чем в oбычных услoвиях.
Атмoсфернoе давление в разных тoчках местнoсти мoжет значительнo oтличаться oт давления на метеoстанции, в зависимoсти oт услoвий рельефа (при пoдъёме на 10 м давление пoнижается примернo на 1 мм рт.ст.).